Regional Weather Roundup
Issued by NWS

Home | Current Version | Previous Version | Graphics & Text | Print | Product List | Glossary On
Versions: 1 2 3 4 5 6 7 8 9 10 11 12 13 14 15 16 17 18 19 20 21 22 23 24 25 26 27 28
000
ASUS45 KCYS 240610
RWRWY

WYOMING REGIONAL WEATHER ROUNDUP
NATIONAL WEATHER SERVICE CHEYENNE WY
1200 AM MDT SUN SEP 24 2017

NOTE:  "FAIR" INDICATES FEW OR NO CLOUDS BELOW 12,000 FEET
WITH NO SIGNIFICANT WEATHER AND/OR OBSTRUCTIONS TO VISIBILITY.

WYZ001-240700-
YELLOWSTONE NATIONAL PARK

CITY           SKY/WX    TMP DP  RH WIND       PRES   REMARKS
LK YELLOWSTONE NOT AVBL
W YELLOWSTONE  NOT AVBL

$$
WYZ002>013-054>058-071-098>099-240700-
NORTHERN WYOMING

CITY           SKY/WX    TMP DP  RH WIND       PRES   REMARKS
JACKSON        FAIR      40  33  76 N15       29.98S WCI  32
CODY           MOCLDY    39  33  79 CALM      30.10S
GREYBULL       CLOUDY    44  40  85 NW10      30.04S
6HR MIN TEMP:  43; 6HR MAX TEMP:  46; 6HR PCP:  0.03;

WORLAND        LGT RAIN  42  40  92 CALM      30.06S
6HR MIN TEMP:  42; 6HR MAX TEMP:  43; 6HR PCP:  0.09;

SHERIDAN       CLOUDY    41  40  96 NW6       30.08F
6HR MIN TEMP:  40; 6HR MAX TEMP:  42; 6HR PCP:  0.04;

BUFFALO        LGT RAIN  38  35  89 N10       30.07F WCI  31
6HR MIN TEMP:  38; 6HR MAX TEMP:  39; 6HR PCP:  0.06;

GILLETTE       LGT RAIN  40  40 100 N15       30.02F WCI  32
6HR MIN TEMP:  40; 6HR MAX TEMP:  42; 6HR PCP:  0.05;

HULETT         DRZL/FOG  41  41 100 N7        30.02F VSB 1/2
NEWCASTLE      CLOUDY    43  43 100 W9        30.00R

$$
WYZ014>020-022>026-101>103-240700-
CENTRAL WYOMING

CITY           SKY/WX    TMP DP  RH WIND       PRES   REMARKS
BIG PINEY      CLOUDY    37  36  96 NW6       29.96R WCI  32
6HR MIN TEMP:  37; 6HR MAX TEMP:  51; 6HR PCP:  0.02;

PINEDALE       MOCLDY    36  34  93 CALM      29.97S
DUBOIS         CLOUDY    34  32  93 SE12      30.02S WCI  25
LANDER         LGT RAIN  38  37  97 NW6       30.04S FOG     WCI  33
6HR MIN TEMP:  38; 6HR MAX TEMP:  39; 6HR PCP:  0.09;

RIVERTON       LGT RAIN  39  37  92 N5        30.05R
6HR MIN TEMP:  38; 6HR MAX TEMP:  40; 6HR PCP:  0.02;

CASPER         CLOUDY    38  36  92 NE10      30.03R WCI  31
6HR MIN TEMP:  38; 6HR MAX TEMP:  40; 6HR PCP:  0.01;

DOUGLAS        CLOUDY    42  40  92 NE9       30.01F
6HR MIN TEMP:  42; 6HR MAX TEMP:  46; 6HR PCP:  0.01;


$$
WYZ021-027>030-104>119-240700-
SOUTHERN WYOMING

CITY           SKY/WX    TMP DP  RH WIND       PRES   REMARKS
EVANSTON       LGT SNOW  33  33 100 N12       29.93F FOG     WCI  24
6HR MIN TEMP:  33; 6HR MAX TEMP:  41;

KEMMERER       LGT SNOW  34  32  93 NE8       29.96S WCI  27
FORT BRIDGER   LGT RAIN  36  36 100 W10       29.98S WCI  28
ROCK SPRINGS   CLOUDY    36  33  89 NE17G26   29.96S WCI  26
6HR MIN TEMP:  36; 6HR MAX TEMP:  45;

DIXON          FAIR      39  34  82 N3        29.93S
RAWLINS        CLOUDY    41  36  82 NE12      29.96S
6HR MIN TEMP:  40; 6HR MAX TEMP:  48;

SARATOGA       FOG       36  36 100 W5        29.95F VSB 1/2 WCI  32
LARAMIE        FAIR      39  36  89 SE13      29.97F WCI  31
6HR MIN TEMP:  39; 6HR MAX TEMP:  43;

CHEYENNE       CLOUDY    42  40  92 N5        29.98F
6HR MIN TEMP:  41; 6HR MAX TEMP:  42; 6HR PCP:  0.30;

TORRINGTON     LGT RAIN  44  43  96 NW6       29.97R
6HR MIN TEMP:  44; 6HR MAX TEMP:  46; 6HR PCP:  0.26;

PINE BLUFFS    LGT RAIN  41  41 100 MISG      29.94F

$$




USA.gov is the U.S. government's official web portal to all federal, state and local government web resources and services.